Preview of NWS' New Version of Forecast
This preview is not operational and should not be used for support decisions.

Regional Weather Roundup (RWR)

Issued by National Weather Service (NWS)

                            
000
ASUS43 KLSX 210857
RWRMO 

WEATHER SUMMARY FOR MISSOURI
NATIONAL WEATHER SERVICE SPRINGFIELD MO
400 AM CDT SAT SEP 21 2019

NOTE: "FAIR" INDICATES FEW OR NO CLOUDS BELOW 12,000 FEET WITH NO
       SIGNIFICANT WEATHER AND/OR OBSTRUCTIONS TO VISIBILITY.
       CURRENT SKY AND/OR WEATHER CONDITIONS ARE NOT AVAILABLE FOR
       CHILLICOTHE AND FARMINGTON.

MOZ001>031-035>038-043-044-053-054-211000-
...NORTHERN AND WESTERN MISSOURI...
  
CITY           SKY/WX    TMP DP  RH WIND       PRES   REMARKS
KANSAS CTY INT CLOUDY    73  70  90 S13       29.96F                  
LEE'S SUMMIT   CLOUDY    74  68  81 S14G23    29.99S                  
ST JOSEPH      CLOUDY    73  69  87 S13       29.94S                  
CHILLICOTHE      N/A     73  69  87 S6        29.99F                  
     
$$
MOZ066>068-077>081-088>096-101>105-211000-
...SOUTHWEST MISSOURI...
  
CITY           SKY/WX    TMP DP  RH WIND       PRES   REMARKS
SPRINGFIELD    CLEAR     71  67  87 S17       30.05F                  
JOPLIN         MOCLDY    74  69  85 S13       30.01S                  
               
$$
MOZ032>034-039>042-045>050-055>058-069>072-211000-
...CENTRAL MISSOURI...  
  
CITY           SKY/WX    TMP DP  RH WIND       PRES   REMARKS
COLUMBIA       NOT AVBL                                               
JEFFERSON CITY CLOUDY    76  68  76 S7        30.06S                  
ROLLA          MOCLDY    74  66  76 S14       30.11R                  
SEDALIA        CLOUDY    71  68  90 S15G21    30.04S                  
WARRENSBURG    CLOUDY    72  68  88 SE7       30.01S                  
               
$$
MOZ051-052-059>065-211000-
...EAST CENTRAL MISSOURI...
  
CITY           SKY/WX    TMP DP  RH WIND       PRES   REMARKS
ST LOUIS INTL  CLOUDY    74  68  81 S10       30.11S                  
                   
$$
MOZ072>076-082>087-097>100-106>115-211000-
...SOUTH CENTRAL AND SOUTHEAST MISSOURI...
  
CITY           SKY/WX    TMP DP  RH WIND       PRES   REMARKS
CAPE GIRARDEAU FAIR      71  66  84 S7        30.15R                  
POPLAR BLUFF   CLOUDY    72  66  81 S5        30.13F                  
WEST PLAINS    PTCLDY    71  67  87 S7        30.14S                  
                                       
$$